• In Uzbekistan
  • List of Countries
  • For 7 days
  • Water Temperature
  • Satellite Maps
  • Weather Map
  • Weather Widgets
  • user-avatar
    Login

    Hourly Weather Sharan

    Today, 18 July, Thursday

    Time Temperature Precipitation Wind Pressure Humidity
    00:00 +24°C° 0.1 mm 3 mps 586 mmHg 63%
    01:00 +24°C° 0.1 mm 2 mps 586 mmHg 64%
    02:00 +23°C° 0.1 mm 1 mps 586 mmHg 66%
    03:00 +23°C° 0 mm 1 mps 585 mmHg 68%
    04:00 +20°C° 0 mm 0 mps 585 mmHg 70%
    05:00 +20°C° 0 mm 0 mps 585 mmHg 72%
    06:00 +23°C° 0 mm 1 mps 586 mmHg 66%
    07:00 +24°C° 0 mm 1 mps 586 mmHg 60%
    08:00 +24°C° 0 mm 1 mps 587 mmHg 54%
    09:00 +26°C° 0 mm 2 mps 587 mmHg 43%
    10:00 +28°C° 0 mm 2 mps 588 mmHg 33%
    11:00 +29°C° 0 mm 2 mps 588 mmHg 21%
    12:00 +30°C° 0 mm 2 mps 588 mmHg 17%
    13:00 +32°C° 0 mm 2 mps 588 mmHg 13%
    14:00 +34°C° 0 mm 3 mps 588 mmHg 10%
    15:00 +34°C° 0 mm 2 mps 588 mmHg 9%
    16:00 +34°C° 0 mm 2 mps 588 mmHg 9%
    17:00 +35°C° 0 mm 2 mps 588 mmHg 9%
    18:00 +33°C° 0 mm 3 mps 587 mmHg 21%
    19:00 +29°C° 0 mm 4 mps 587 mmHg 33%
    20:00 +27°C° 0 mm 5 mps 587 mmHg 44%
    21:00 +27°C° 0.1 mm 4 mps 587 mmHg 47%
    22:00 +26°C° 0.1 mm 3 mps 587 mmHg 50%
    23:00 +26°C° 0.1 mm 2 mps 587 mmHg 53%

    Tomorrow, 19 July, Friday

    Time Temperature Precipitation Wind Pressure Humidity
    00:00 +25°C° 0.1 mm 1 mps 587 mmHg 54%
    01:00 +24°C° 0.1 mm 1 mps 587 mmHg 56%
    02:00 +24°C° 0.1 mm 1 mps 586 mmHg 57%
    03:00 +23°C° 0.1 mm 1 mps 586 mmHg 59%
    04:00 +23°C° 0.1 mm 1 mps 586 mmHg 61%
    05:00 +20°C° 0.1 mm 0 mps 586 mmHg 64%
    06:00 +23°C° 0 mm 1 mps 586 mmHg 59%
    07:00 +24°C° 0 mm 1 mps 587 mmHg 55%
    08:00 +25°C° 0 mm 1 mps 588 mmHg 50%
    09:00 +26°C° 0 mm 1 mps 588 mmHg 43%
    10:00 +28°C° 0 mm 1 mps 588 mmHg 36%
    11:00 +29°C° 0 mm 1 mps 589 mmHg 29%
    12:00 +30°C° 0 mm 1 mps 589 mmHg 26%
    13:00 +32°C° 0 mm 2 mps 589 mmHg 23%
    14:00 +34°C° 0 mm 2 mps 589 mmHg 20%
    15:00 +34°C° 0 mm 3 mps 589 mmHg 21%
    16:00 +34°C° 0 mm 4 mps 588 mmHg 22%
    17:00 +34°C° 0 mm 5 mps 588 mmHg 24%
    18:00 +32°C° 0 mm 6 mps 588 mmHg 31%
    19:00 +29°C° 0 mm 6 mps 588 mmHg 39%
    20:00 +28°C° 0 mm 6 mps 587 mmHg 47%
    21:00 +27°C° 0.1 mm 4 mps 588 mmHg 49%
    22:00 +27°C° 0.1 mm 3 mps 588 mmHg 51%
    23:00 +26°C° 0.1 mm 1 mps 588 mmHg 53%

    Day after tomorrow, 20 July, Saturday

    Time Temperature Precipitation Wind Pressure Humidity
    00:00 +26°C° 0.5 mm 1 mps 588 mmHg 53%
    01:00 +25°C° 0.5 mm 1 mps 588 mmHg 53%
    02:00 +25°C° 0.5 mm 1 mps 588 mmHg 53%
    03:00 +24°C° 0 mm 1 mps 588 mmHg 55%
    04:00 +24°C° 0 mm 1 mps 587 mmHg 58%
    05:00 +23°C° 0 mm 1 mps 587 mmHg 60%
    06:00 +24°C° 0 mm 1 mps 588 mmHg 56%
    07:00 +25°C° 0 mm 1 mps 588 mmHg 51%
    08:00 +24°C° 0 mm 0 mps 589 mmHg 47%
    09:00 +27°C° 0 mm 1 mps 589 mmHg 40%
    10:00 +29°C° 0 mm 1 mps 590 mmHg 32%
    11:00 +30°C° 0 mm 1 mps 590 mmHg 25%
    12:00 +31°C° 0 mm 1 mps 590 mmHg 22%
    13:00 +32°C° 0 mm 2 mps 590 mmHg 19%
    14:00 +34°C° 0 mm 2 mps 590 mmHg 16%
    15:00 +34°C° 0 mm 2 mps 590 mmHg 16%
    16:00 +35°C° 0 mm 2 mps 590 mmHg 16%
    17:00 +35°C° 0 mm 2 mps 589 mmHg 16%
    18:00 +33°C° 0 mm 3 mps 589 mmHg 25%
    19:00 +32°C° 0 mm 4 mps 589 mmHg 33%
    20:00 +29°C° 0 mm 6 mps 588 mmHg 42%
    21:00 +28°C° 0.1 mm 5 mps 588 mmHg 45%
    22:00 +28°C° 0.1 mm 3 mps 588 mmHg 47%
    23:00 +27°C° 0.1 mm 2 mps 589 mmHg 50%

    21 July, Sunday

    Time Temperature Precipitation Wind Pressure Humidity
    00:00 +27°C° 0.1 mm 2 mps 588 mmHg 52%
    01:00 +26°C° 0.1 mm 1 mps 588 mmHg 54%
    02:00 +25°C° 0.1 mm 1 mps 587 mmHg 56%
    03:00 +25°C° 0 mm 1 mps 587 mmHg 58%
    04:00 +22°C° 0 mm 0 mps 587 mmHg 60%
    05:00 +21°C° 0 mm 0 mps 586 mmHg 62%
    06:00 +25°C° 0 mm 1 mps 587 mmHg 53%
    07:00 +26°C° 0 mm 1 mps 588 mmHg 45%
    08:00 +27°C° 0 mm 2 mps 588 mmHg 37%
    09:00 +28°C° 0 mm 2 mps 589 mmHg 30%
    10:00 +30°C° 0 mm 3 mps 589 mmHg 22%
    11:00 +31°C° 0 mm 3 mps 590 mmHg 15%
    12:00 +33°C° 0 mm 3 mps 590 mmHg 13%
    13:00 +34°C° 0 mm 3 mps 590 mmHg 11%
    14:00 +35°C° 0 mm 3 mps 590 mmHg 8%
    15:00 +35°C° 0 mm 3 mps 589 mmHg 8%
    16:00 +36°C° 0 mm 2 mps 589 mmHg 7%
    17:00 +36°C° 0 mm 2 mps 589 mmHg 6%
    18:00 +34°C° 0 mm 2 mps 589 mmHg 14%
    19:00 +33°C° 0 mm 3 mps 588 mmHg 21%
    20:00 +30°C° 0 mm 4 mps 588 mmHg 28%
    21:00 +29°C° 0 mm 3 mps 588 mmHg 33%
    22:00 +28°C° 0 mm 2 mps 588 mmHg 37%
    23:00 +27°C° 0 mm 2 mps 588 mmHg 42%

    22 July, Monday

    Time Temperature Precipitation Wind Pressure Humidity
    00:00 +27°C° 0 mm 2 mps 588 mmHg 40%
    01:00 +26°C° 0 mm 1 mps 587 mmHg 38%
    02:00 +25°C° 0 mm 1 mps 586 mmHg 36%
    03:00 +24°C° 0 mm 1 mps 586 mmHg 32%
    04:00 +23°C° 0 mm 1 mps 586 mmHg 28%
    05:00 +23°C° 0 mm 1 mps 586 mmHg 24%
    06:00 +24°C° 0 mm 2 mps 586 mmHg 21%
    07:00 +26°C° 0 mm 2 mps 587 mmHg 17%
    08:00 +27°C° 0 mm 3 mps 588 mmHg 14%
    09:00 +29°C° 0 mm 3 mps 588 mmHg 13%
    10:00 +30°C° 0 mm 4 mps 589 mmHg 11%
    11:00 +33°C° 0 mm 4 mps 589 mmHg 9%
    12:00 +34°C° 0 mm 3 mps 589 mmHg 8%
    13:00 +34°C° 0 mm 3 mps 589 mmHg 8%
    14:00 +35°C° 0 mm 2 mps 589 mmHg 7%
    15:00 +35°C° 0 mm 2 mps 588 mmHg 7%
    16:00 +35°C° 0 mm 2 mps 588 mmHg 6%
    17:00 +35°C° 0 mm 1 mps 588 mmHg 6%
    18:00 +34°C° 0 mm 2 mps 587 mmHg 10%
    19:00 +33°C° 0 mm 3 mps 587 mmHg 13%
    20:00 +31°C° 0 mm 3 mps 587 mmHg 17%
    21:00 +30°C° 0 mm 3 mps 587 mmHg 22%
    22:00 +29°C° 0 mm 2 mps 586 mmHg 27%
    23:00 +28°C° 0 mm 2 mps 586 mmHg 32%

    23 July, Tuesday

    Time Temperature Precipitation Wind Pressure Humidity
    00:00 +27°C° 0 mm 2 mps 586 mmHg 31%
    01:00 +26°C° 0 mm 2 mps 586 mmHg 30%
    02:00 +26°C° 0 mm 1 mps 585 mmHg 30%
    03:00 +25°C° 0 mm 2 mps 585 mmHg 30%
    04:00 +24°C° 0 mm 2 mps 585 mmHg 30%
    05:00 +24°C° 0 mm 2 mps 585 mmHg 31%
    06:00 +25°C° 0 mm 2 mps 586 mmHg 28%
    07:00 +26°C° 0 mm 2 mps 586 mmHg 26%
    08:00 +27°C° 0 mm 2 mps 587 mmHg 23%
    09:00 +29°C° 0 mm 2 mps 587 mmHg 22%
    10:00 +30°C° 0 mm 1 mps 588 mmHg 20%
    11:00 +32°C° 0 mm 1 mps 588 mmHg 18%
    12:00 +34°C° 0 mm 2 mps 588 mmHg 16%
    13:00 +35°C° 0 mm 2 mps 588 mmHg 14%
    14:00 +36°C° 0 mm 2 mps 588 mmHg 12%
    15:00 +36°C° 0 mm 3 mps 588 mmHg 12%
    16:00 +37°C° 0 mm 4 mps 588 mmHg 12%
    17:00 +37°C° 0 mm 5 mps 588 mmHg 11%
    18:00 +36°C° 0 mm 4 mps 587 mmHg 14%
    19:00 +34°C° 0 mm 3 mps 587 mmHg 16%
    20:00 +33°C° 0 mm 3 mps 587 mmHg 19%
    21:00 +31°C° 0 mm 2 mps 587 mmHg 23%
    22:00 +30°C° 0 mm 2 mps 586 mmHg 28%
    23:00 +29°C° 0 mm 2 mps 586 mmHg 32%
    Show more